Location: Czu?�w
(50.1404°N, 18.9919°E)
Time: 03:33:33
(UTC+00:00)

Cosmos 1892 - Pass Details

Date: 27 October 2020
Orbit: 504 x 523 km, 82.5° (Epoch: 24 November)

Event Time Altitude Azimuth Distance (km) Brightness Sun altitude
Rises 17:24:27 0° 346° (NNW) 2,666 6.5 -19.1°
Reaches altitude 10° 17:26:37 10° 342° (NNW) 1,774 5.6 -19.4°
Maximum altitude 17:30:26 57° 264° (W) 627 3.4 -20.0°
Drops below altitude 10° 17:34:14 10° 186° (S) 1,761 5.4 -20.6°
Sets 17:36:22 0° 182° (S) 2,644 6.3 -21.0°
